Regional Weather Roundup
Issued by NWS

Home | Current Version | Previous Version | Graphics & Text | Print | Product List | Glossary On
Versions: 1 2 3 4 5 6 7 8 9 10 11 12 13 14 15 16 17 18 19 20 21 22 23 24 25 26 27 28 29 30 31 32 33 34 35 36 37 38 39 40 41 42 43 44 45 46 47 48 49 50
871
ASUS43 KMPX 281110
RWRMN
WEATHER ROUNDUP FOR MINNESOTA
NATIONAL WEATHER SERVICE TWIN CITIES/CHANHASSEN MN
600 AM CDT SUN MAY 28 2017


NOTE: "FAIR" INDICATES FEW OR NO CLOUDS BELOW 12,000 FEET WITH NO
SIGNIFICANT WEATHER AND/OR OBSTRUCTIONS TO VISIBILITY. N/A MEANS
CURRENT SKY AND/OR WEATHER CONDITIONS ARE NOT AVAILABLE.

MNZ060>063-068>070-281200-
   Twin Cities Metro

CITY           SKY/WX    TMP DP  RH WIND       PRES   REMARKS
TWIN CITIES    CLOUDY    58  49  72 SW7       29.73F
ST PAUL        CLOUDY    56  51  84 CALM      29.73F
CRYSTAL        CLOUDY    56  48  74 SW3       29.72S
BLAINE         CLOUDY    59  50  72 SW5       29.72S
LAKEVILLE      PTCLDY    54  48  82 SW3       29.74S
EDEN PRAIRIE   PTCLDY    56  50  80 W8        29.72F
SOUTH ST PAUL  CLOUDY    56  48  74 CALM      29.73F
LAKE ELMO      CLOUDY    55  50  82 SW5       29.73S
$$
MNZ001>005-007-008-013>017-022>024-027-028-281200-
   Northwest Minnesota

CITY           SKY/WX    TMP DP  RH WIND       PRES   REMARKS
BEMIDJI        CLOUDY    48  47  95 W8        29.68F
HALLOCK        MOCLDY    48  46  93 NW6       29.72S
ROSEAU         PTCLDY    48  45  87 W7        29.68S
WARROAD        MOCLDY    52  46  82 SW3       29.68R
THIEF RVR FALL CLEAR     49  46  90 NW8       29.71S
CROOKSTON      CLEAR     48  46  93 NW9       29.73S
FOSSTON        CLOUDY    50  46  87 W12       29.72S
DETROIT LAKES  MOCLDY    50  46  87 NW7       29.74F
MOORHEAD       CLEAR     50  45  81 W9        29.76S
PARK RAPIDS    LGT RAIN  50  45  83 W9        29.71S
MAHNOMEN       CLOUDY    49  47  93 W10       29.72S
$$
MNZ006-009>011-018-025>026-281200-
   North Central Minnesota

CITY           SKY/WX    TMP DP  RH WIND       PRES   REMARKS
FLAG ISLAND    PTCLDY    54  46  76 NW14      29.64S
INTL FALLS     MOCLDY    50  45  83 CALM      29.63F
WASKISH        MOCLDY    54  52  94 W12       29.65F
BIG FORK       CLOUDY    48  46  93 CALM      29.65S
LONGVILLE      CLOUDY    50  48  93 W7        29.69S
GRAND RAPIDS   PTCLDY    49  48  97 SW3       29.69S
CRANE LAKE     LGT RAIN  48  48 100 CALM      29.69S
ORR            LGT RAIN  50  46  87 CALM      29.64F
COOK           LGT RAIN  52  48  87 CALM      29.67F
WALKER         CLOUDY    48  47  94 W7        29.69S
$$
MNZ012-019>021-037-281200-
   Northeast Minnesota

CITY           SKY/WX    TMP DP  RH WIND       PRES   REMARKS
DULUTH         PTCLDY    52  46  80 W8        29.67F
ELY            PTCLDY    48  45  87 CALM      29.66F
HIBBING        LGT RAIN  48  47  96 E6        29.65F
EVELETH        LGT RAIN  48  46  92 W5        29.69R
DULUTH HARBOR  CLOUDY    55  52  88 SW5       29.68R
TWO HARBORS    CLOUDY    52  46  82 CALM      29.65F
SILVER BAY     CLOUDY    46  46 100 CALM      29.65F
GRAND MARAIS     N/A     44  40  85 VRB3      29.68F
G MARAIS ARPRT CLOUDY    46  39  76 CALM      29.69F
$$
MNZ029>031-032-039>041-046>048-054>057-064-281200-
   West Central Minnesota

CITY           SKY/WX    TMP DP  RH WIND       PRES   REMARKS
FERGUS FALLS   MOCLDY    48  48 100 NW9       29.76S
WHEATON        CLEAR     50  45  81 W8        29.81R
MORRIS         CLEAR     50  46  87 W15       29.77F
ALEXANDRIA     CLEAR     49  46  90 W12       29.76R
ELBOW LAKE     FAIR      47  46  95 NW9       29.78R
WADENA         PTCLDY    48  46  93 W8        29.73R
GLENWOOD       CLEAR     48  46  93 W12       29.76S
APPLETON       CLEAR     48  45  87 W7        29.79S
BENSON         CLEAR     50  46  87 NW9       29.79S
ORTONVILLE     CLEAR     52  45  76 W9        29.80S
MADISON        CLEAR     54  46  76 W8        29.80S
WILLMAR        FAIR      52  46  82 NW9       29.78F
$$
MNZ033>034-036-042>043-049>051-058-059-281200-
   Central Minnesota

CITY           SKY/WX    TMP DP  RH WIND       PRES   REMARKS
ST CLOUD       PTCLDY    54  48  80 W9        29.72S
SAUK CENTRE    FAIR      48  45  90 W9        29.75R
PAYNESVILLE    CLEAR     49  50 100 W7        29.75F
AITKIN         PTCLDY    52  46  82 W5        29.68S
PINE RIVER     CLOUDY    50  46  87 W6        29.74S
BRAINERD       CLOUDY    52  46  80 W7        29.71F
STAPLES        PTCLDY    48  46  93 W10       29.73R
LONG PRAIRIE   FAIR      50  45  81 SW12      29.74S
LITTLE FALLS   CLOUDY    50  45  81 W3        29.72F
LITCHFIELD     CLEAR     55  50  82 W8        29.76R
BUFFALO        PTCLDY    55  47  74 SW5       29.74S
MAPLE LAKE     CLEAR     56  50  81 W3        29.74S
HUTCHINSON     CLEAR     54  49  83 W8        29.77R
$$
MNZ037-044-045-052-053-281200-
   East Central Minnesota

CITY           SKY/WX    TMP DP  RH WIND       PRES   REMARKS
PRINCETON      MOCLDY    55  48  76 W5        29.72S
MORA           MOCLDY    54  46  76 W8        29.72S
CAMBRIDGE      CLOUDY    57  46  67 CALM      29.69F
RUSH CITY      CLOUDY    54  48  81 S5        29.70F
MOOSE LAKE     CLOUDY    48  46  93 CALM      29.66F
HINCKLEY       PTSUNNY   54  50  87 SW7       29.70R
CLOQUET        LGT RAIN  54  46  76 SW3       29.67F
MCGREGOR       CLOUDY    52  46  82 CALM      29.68F
$$
MNZ071>073-080-081-089-090-097-098-281200-
   Southwest Minnesota

CITY           SKY/WX    TMP DP  RH WIND       PRES   REMARKS
MONTEVIDEO     CLEAR     52  46  82 NW6       29.79S
CANBY          CLEAR     52  46  80 CALM      29.82S
MARSHALL       CLEAR     51  46  83 NW9       29.81S
REDWOOD FALLS  CLEAR     53  46  77 NW10      29.79R
OLIVIA         CLEAR     54  46  76 NW10      29.77R
PIPESTONE      CLEAR     52  45  76 NW7       29.83S
WINDOM         CLEAR     52  46  82 W9        29.82R
WORTHINGTON      N/A     52  47  83 W10       29.84R
JACKSON        CLEAR     54  46  76 W3        29.83R
TRACY          CLEAR     55  48  78 NW8       29.82R
SLAYTON        CLEAR     49  46  88 NW5       29.84R
$$
MNZ065>067-074>077-082>085-091>093-281200-
   South Central Minnesota

CITY           SKY/WX    TMP DP  RH WIND       PRES   REMARKS
MANKATO        PTCLDY    55  50  82 W13       29.77S
NEW ULM        CLEAR     54  48  82 W12       29.78S
ST JAMES       CLEAR     55  48  76 W12       29.81R
FAIRMONT       PTCLDY    56  49  77 W15       29.80S
GLENCOE        CLEAR     56  51  84 W6        29.75S
FARIBAULT      PTCLDY    54  50  87 SW6       29.76F
OWATONNA       CLEAR     54  48  82 S8        29.76F
WASECA         CLEAR     52  46  82 SW6       29.78F
ALBERT LEA     CLEAR     57  54  88 SW6       29.78F
$$
MNZ078>079-086>088-094>096-281200-
   Southeast Minnesota

CITY           SKY/WX    TMP DP  RH WIND       PRES   REMARKS
ROCHESTER      CLEAR     52  49  89 SW9       29.78F
RED WING       CLEAR     52  48  87 CALM      29.73F
STANTON        PTCLDY    53  48  83 S3        29.74F
DODGE CENTER   CLEAR     52  46  82 SW8       29.77F
WINONA         PTCLDY    54  52  94 CALM      29.77S
AUSTIN         CLEAR     50  46  87 CALM      29.78F
PRESTON        PTCLDY    56  48  74 SW7       29.78F
$$
ABBREVIATIONS USED IN REMARKS
   TC - TEMPERATURES IN CELSIUS
  WCI - WIND CHILL INDEX
   HX - HEAT INDEX
  VSB - VISIBILITY
$$




USA.gov is the U.S. government's official web portal to all federal, state and local government web resources and services.